This is the latest recevied weather packets stored in our database for station/object W4NRG-1. If no packets are shown the sender has not sent any weather packets the latest 10 day(s).
| Time | Temp. | Humidity | Pressure | Rain* | Wind** | Luminosity | Snow |
|---|---|---|---|---|---|---|---|
| 1778191389 | 13.89° C | 61% | 1010.9 hPa | 0 mm | - | - | - |
| 1778191084 | 13.89° C | 67% | 1010.9 hPa | 0 mm | - | - | - |
| 1778190782 | 14.44° C | 62% | 1011.1 hPa | 0 mm | - | - | - |
| 1778190479 | 14.44° C | 69% | 1011.2 hPa | 0 mm | - | - | - |
| 1778190176 | 13.89° C | 70% | 1011.3 hPa | 0 mm | - | - | - |
| 1778189871 | 14.44° C | 70% | 1011 hPa | 0 mm | - | - | - |
| 1778189568 | 13.89° C | 69% | 1011 hPa | 0 mm | - | - | - |
| 1778189265 | 13.33° C | 75% | 1011.3 hPa | 0 mm | - | - | - |
| 1778188961 | 12.78° C | 79% | 1011.3 hPa | 0 mm | - | - | - |
| 1778188658 | 12.22° C | 82% | 1011.2 hPa | 0 mm | - | - | - |
| 1778188354 | 12.22° C | 82% | 1011.2 hPa | 0 mm | - | - | - |
| 1778188051 | 12.22° C | 80% | 1011.4 hPa | 0 mm | - | - | - |
| 1778187748 | 12.22° C | 78% | 1011.2 hPa | 0 mm | - | - | - |
| 1778187444 | 12.78° C | 79% | 1011.3 hPa | 0 mm | - | - | - |
| 1778187141 | 12.78° C | 79% | 1011 hPa | 0 mm | - | - | - |
| 1778186837 | 12.78° C | 74% | 1011.1 hPa | 0 mm | - | - | - |
| 1778186536 | 12.78° C | 73% | 1010.6 hPa | 1.78 mm | - | - | - |
| 1778186233 | 12.78° C | 80% | 1011.1 hPa | 1.78 mm | - | - | - |
| 1778185930 | 12.22° C | 79% | 1011 hPa | 0 mm | - | - | - |
| 1778185626 | 12.22° C | 75% | 1011.1 hPa | 0 mm | - | - | - |
| 1778185322 | 12.78° C | 73% | 1011.7 hPa | 0 mm | - | - | - |
| 1778185017 | 13.33° C | 71% | 1011.5 hPa | 0 mm | - | - | - |
| 1778184714 | 13.89° C | 70% | 1011.5 hPa | 0 mm | - | - | - |
| 1778184411 | 14.44° C | 67% | 1010.9 hPa | 0 mm | - | - | - |
| 1778184106 | 13.33° C | 77% | 1010.7 hPa | 0 mm | - | - | - |
* Rain latest hour (hover to see other rain measurements)
** Current wind speed in m/s (hover to see current wind gust speed)